DMSP 5D-2 F13 DEB

Satellite information

Favourite Embed

Satellite Type and Status

DEBRISIN ORBIT

Key statistics

Satellite DMSP 5D-2 F13 DEB at a glance.

Uptime

11117

Days in orbit

Revolutions

≈ 14.4

Per day

Orbit

SSO

Sun Synchronous Orbit

Inclination

98.7

Latest

Satellite identification and parameters

Extended collection of information and parameters for DMSP 5D-2 F13 DEB.

Object identification

Identified? True

Debris? True

Object name: DMSP 5D-2 F13 DEB

International designator: 1995-015FQ

Object number (NORAD): 40676

Object ID (CCSDS): 40676

Country: UNITED STATES OF AMERICA (US)

Current information (Y/N): Y

RCS size: SMALL

Orbital parameters

Period: 100.177 minutes

Inclination: 98.7016 deg

SMA: 7145.072 km

Apoapsis: 771.692 km

Periapsis: 762.183 km

RAAN: 269.9033 deg

Eccentricy: 0.00066546

Argument of periapsis: 158.0571 deg

Mean anomaly: 202.0901 deg

Mean motion: 14.37450218 rev/day

Mean motion (dot): 0.00004905 rev/day2

B* drag term: 0.0016536806 1/REarth

Two-line elements (TLE)

Creation date: Aug. 27, 2025, 12:18 p.m.

Reference frame: TEME

Reference center: EARTH

Epoch: Aug. 26, 2025, 9:10 p.m. UTC

TLE line 0: 0 DMSP 5D-2 F13 DEB

TLE line 1: 1 40676U 95015FQ 25238.88256278 .00004905 00000-0 16537-2 0 9991

TLE line 2: 2 40676 98.7016 269.9033 0006655 158.0571 202.0901 14.37450218534064

Live tracking on map

Real-time ground track for satellite DMSP 5D-2 F13 DEB.

In-orbit conjunctions

A list of the most updated potential collisions computed for object DMSP 5D-2 F13 DEB.

Target Orbit TCA Probability of collision Miss distance Type
CZ-2D R/B LEO 2025-03-27 03:56:32 0.0001442656 333.0 (m) ROCKET BODY
THORAD AGENA D DEB LEO 2024-11-16 18:47:39 0.001298354 415.0 (m) DEBRIS

Associated space launch

Military meteorological satellite

DMSP 5D-2 F13 DEB was lifted into orbit during the mission ‘Atlas E | DMSP-5D2 F13’, on board a Atlas E space rocket.

The launch took place on March 24, 1995, 2:05 p.m. from Space Launch Complex 3W.

For more information about the launch, click the button.

Launch to space Atlas E | DMSP-5D2 F13
Atlas E | DMSP-5D2 F13

Agency: N/A

Status: Launch Successful

Launch date: March 24, 1995, 2:05 p.m. UTC

Rocket: Atlas E

Launch pad: Space Launch Complex 3W

Location: Vandenberg SFB, CA, USA

...

Latest news about this satellite

There are no fresh news available about this satellite. Check back as we update our databases every day.


Newsletter sign-up

Weekly statistics, charts and insights to help you stay on top of the space industry.